Location: Davayat
(45.9471°N, 3.1105°E)
Time: 22:24:30
(UTC+00:00)

Meteor 2-12 Rocket - Pass Details

Date: 26 April 2021
Orbit: 935 x 958 km, 82.5° (Epoch: 16 May)

Event Time Altitude Azimuth Distance (km) Brightness Sun altitude
Rises 01:11:29 0° 335° (NNW) 3,624 8.1 -27.4°
Reaches altitude 10° 01:15:03 10° 315° (NW) 2,669 7.0 -27.2°
Enters shadow 01:18:09 15° 284° (WNW) 2,286 6.3 -26.9°
